| time (UTC) | temp F | wind direction | speed knots | gust knots | rain 1hr in | rain 24hr in | rain mn in | humidity % | barometer mb |
| 20260502210055 | 75 | 177 | 1.7 | 10.4 | 0.00 | 0.00 | 0.00 | 21 | 1013.8 |
| 20260502204558 | 75 | 262 | 3.5 | 10.4 | 0.00 | 0.00 | 0.00 | 21 | 1014.1 |
| 20260502203048 | 75 | 22 | 3.5 | 10.4 | 0.00 | 0.00 | 0.00 | 22 | 1014.3 |
| 20260502201549 | 74 | 289 | 1.7 | 7.8 | 0.00 | 0.00 | 0.00 | 22 | 1014.5 |
| 20260502200042 | 73 | 248 | 3.5 | 8.7 | 0.00 | 0.00 | 0.00 | 23 | 1014.7 |
| 20260502194541 | 73 | 296 | 4.3 | 10.4 | 0.00 | 0.00 | 0.00 | 23 | 1014.8 |
| 20260502193048 | 74 | 314 | 5.2 | 13.0 | 0.00 | 0.00 | 0.00 | 24 | 1014.9 |
| 20260502191543 | 72 | 347 | 0.9 | 8.7 | 0.00 | 0.00 | 0.00 | 26 | 1015.1 |
| 20260502190036 | 72 | 292 | 3.5 | 7.8 | 0.00 | 0.00 | 0.00 | 26 | 1015.2 |
| 20260502184545 | 71 | 269 | 1.7 | 9.6 | 0.00 | 0.00 | 0.00 | 25 | 1015.5 |
| 20260502183034 | 71 | 258 | 4.3 | 13.0 | 0.00 | 0.00 | 0.00 | 27 | 1015.7 |
| 20260502181538 | 71 | 277 | 5.2 | 11.3 | 0.00 | 0.00 | 0.00 | 28 | 1015.9 |
| 20260502163010 | 64 | 288 | 0.9 | 6.1 | 0.00 | 0.00 | 0.00 | 47 | 1017.1 |
| 20260502161507 | 62 | 273 | 1.7 | 6.1 | 0.00 | 0.00 | 0.00 | 52 | 1017.2 |
| 20260502151553 | 57 | 289 | 3.5 | 7.0 | 0.00 | 0.00 | 0.00 | 59 | 1017.4 |
| 20260502123028 | 40 | 348 | 0.9 | 3.5 | 0.00 | 0.00 | 0.00 | 82 | 1016.8 |
| 20260502121536 | 40 | 290 | 0.9 | 3.5 | 0.00 | 0.00 | 0.00 | 82 | 1016.3 |
| 20260502114521 | 40 | 259 | 1.7 | 3.5 | 0.00 | 0.00 | 0.00 | 82 | 1015.8 |
| 20260502113019 | 40 | 281 | 0.9 | 2.6 | 0.00 | 0.00 | 0.00 | 81 | 1015.8 |
| 20260502111518 | 40 | 327 | 0.9 | 1.7 | 0.00 | 0.00 | 0.00 | 81 | 1015.6 |
| 20260502110019 | 41 | 327 | 0.9 | 3.5 | 0.00 | 0.00 | 0.00 | 80 | 1015.4 |
| 20260502104512 | 41 | 322 | 0.0 | 0.0 | 0.00 | 0.00 | 0.00 | 80 | 1015.2 |
| 20260502103010 | 42 | 291 | 0.0 | 0.0 | 0.00 | 0.00 | 0.00 | 80 | 1015.2 |
| 20260502101512 | 42 | 292 | 0.9 | 2.6 | 0.00 | 0.00 | 0.00 | 80 | 1015.2 |
| 20260502091505 | 43 | 297 | 0.9 | 3.5 | 0.00 | 0.00 | 0.00 | 79 | 1015.5 |
| 20260502070043 | 46 | 265 | 2.6 | 4.3 | 0.00 | 0.00 | 0.00 | 77 | 1015.8 |
| 20260502064539 | 47 | 242 | 1.7 | 4.3 | 0.00 | 0.00 | 0.00 | 76 | 1015.8 |
| 20260502063042 | 48 | 250 | 0.9 | 3.5 | 0.00 | 0.00 | 0.00 | 75 | 1015.8 |
| 20260502061537 | 48 | 228 | 1.7 | 4.3 | 0.00 | 0.00 | 0.00 | 74 | 1015.7 |
| 20260502060033 | 48 | 208 | 0.9 | 4.3 | 0.00 | 0.00 | 0.00 | 73 | 1015.8 |
| 20260502054536 | 49 | 230 | 0.9 | 2.6 | 0.00 | 0.00 | 0.00 | 71 | 1015.8 |
| 20260502053026 | 50 | 233 | 0.9 | 1.7 | 0.00 | 0.00 | 0.00 | 69 | 1015.8 |
| 20260502051522 | 52 | 257 | 2.6 | 4.3 | 0.00 | 0.00 | 0.00 | 68 | 1015.6 |
| 20260502050029 | 53 | 233 | 1.7 | 5.2 | 0.00 | 0.00 | 0.00 | 67 | 1015.8 |
| 20260502044519 | 53 | 279 | 3.5 | 6.1 | 0.00 | 0.00 | 0.00 | 65 | 1015.6 |
| 20260502043019 | 54 | 279 | 4.3 | 9.6 | 0.00 | 0.00 | 0.00 | 63 | 1015.6 |
| 20260502041519 | 55 | 286 | 4.3 | 10.4 | 0.00 | 0.00 | 0.00 | 62 | 1015.6 |
| 20260502040018 | 54 | 288 | 5.2 | 7.8 | 0.00 | 0.00 | 0.00 | 64 | 1015.5 |
| 20260502034517 | 53 | 267 | 0.9 | 2.6 | 0.00 | 0.00 | 0.00 | 64 | 1015.4 |
| 20260502033016 | 53 | 221 | 0.0 | 0.0 | 0.00 | 0.00 | 0.00 | 62 | 1015.3 |
| 20260502031518 | 54 | 173 | 0.0 | 1.7 | 0.00 | 0.00 | 0.00 | 58 | 1015.2 |
| 20260502030016 | 56 | 288 | 0.9 | 6.1 | 0.00 | 0.00 | 0.00 | 57 | 1014.9 |
| 20260502024514 | 56 | 288 | 2.6 | 6.1 | 0.00 | 0.00 | 0.00 | 55 | 1014.7 |
| 20260502023014 | 57 | 280 | 1.7 | 5.2 | 0.00 | 0.00 | 0.00 | 53 | 1014.4 |
| 20260502021516 | 57 | 281 | 2.6 | 7.0 | 0.00 | 0.00 | 0.00 | 51 | 1014.2 |
| 20260502020013 | 58 | 281 | 2.6 | 4.3 | 0.00 | 0.00 | 0.00 | 49 | 1014.1 |
| 20260502014524 | 59 | 289 | 1.7 | 3.5 | 0.00 | 0.00 | 0.00 | 46 | 1013.9 |
| 20260502013011 | 60 | 259 | 1.7 | 2.6 | 0.00 | 0.00 | 0.00 | 44 | 1013.6 |
| 20260502011513 | 61 | 285 | 0.9 | 3.5 | 0.00 | 0.00 | 0.00 | 43 | 1013.5 |
| 20260502010012 | 61 | 300 | 2.6 | 5.2 | 0.00 | 0.00 | 0.00 | 42 | 1013.6 |
| 20260502004520 | 62 | 292 | 2.6 | 6.1 | 0.00 | 0.00 | 0.00 | 41 | 1013.5 |
| 20260502003009 | 62 | 274 | 2.6 | 7.0 | 0.00 | 0.00 | 0.00 | 41 | 1013.4 |
| 20260502001509 | 62 | 285 | 3.5 | 8.7 | 0.00 | 0.00 | 0.00 | 41 | 1013.4 |
| 20260502000009 | 62 | 285 | 1.7 | 5.2 | 0.00 | 0.00 | 0.00 | 41 | 1013.2 |
| 20260501234507 | 63 | 290 | 2.6 | 6.1 | 0.00 | 0.00 | 0.00 | 40 | 1013.2 |
| 20260501233007 | 63 | 326 | 0.9 | 5.2 | 0.00 | 0.00 | 0.00 | 40 | 1013.2 |
| 20260501231506 | 64 | 284 | 1.7 | 6.1 | 0.00 | 0.00 | 0.00 | 40 | 1013.1 |
| 20260501230003 | 62 | 282 | 1.7 | 7.0 | 0.00 | 0.00 | 0.00 | 42 | 1013.2 |
| 20260501224600 | 61 | 283 | 1.7 | 4.3 | 0.00 | 0.00 | 0.00 | 43 | 1013.3 |
| 20260501223107 | 61 | 319 | 0.0 | 6.1 | 0.00 | 0.00 | 0.00 | 44 | 1013.2 |
| 20260501221558 | 62 | 230 | 0.9 | 3.5 | 0.00 | 0.00 | 0.00 | 45 | 1013.2 |
| 20260501220105 | 61 | 350 | 0.9 | 3.5 | 0.00 | 0.00 | 0.00 | 46 | 1013.2 |
| 20260501214555 | 60 | 279 | 0.0 | 3.5 | 0.00 | 0.00 | 0.00 | 46 | 1013.3 |
| 20260501213110 | 60 | 288 | 0.9 | 5.2 | 0.00 | 0.00 | 0.00 | 46 | 1013.5 |
| 20260501211553 | 61 | 296 | 0.0 | 3.5 | 0.00 | 0.00 | 0.00 | 46 | 1013.6 |